Temp
-23 -23 -22 -22 -22 -22 -22 -22 -22 -22 -22 -22 -22 -22 -22 -23 -23 -23 -23 -23 -23 -23 -23 -23 -23 -23 -23 -23 -23 -23 -22 -22 -22 -22 -22 -21 -21 -21 -21 -21 -21 -21
-23 -23 -23 -23 -23 -23 -23 -23 -23 -23 -23 -23 -23 -23 -23 -23 -23 -23 -23 -24 -24 -24 -24 -24 -24 -24 -24 -23 -23 -23 -23 -23 -22 -23 -23 -22 -22 -22 -22 -22 -22 -22
-24 -24 -24 -24 -24 -24 -24 -24 -24 -23 -23 -23 -23 -23 -23 -23 -23 -23 -24 -24 -24 -24 -24 -24 -24 -24 -24 -24 -24 -24 -23 -23 -23 -23 -23 -23 -23 -22 -22 -22 -22 -22
-24 -24 -24 -24 -24 -25 -25 -24 -24 -24 -24 -24 -24 -24 -24 -24 -24 -24 -24 -24 -24 -24 -24 -24 -24 -24 -24 -24 -24 -24 -24 -24 -23 -23 -23 -23 -23 -23 -23 -23 -23 -22
-25 -25 -25 -25 -25 -25 -25 -25 -25 -25 -25 -25 -25 -25 -24 -24 -24 -24 -24 -24 -25 -25 -24 -24 -25 -25 -25 -25 -25 -25 -24 -24 -24 -24 -23 -23 -23 -23 -23 -23 -23 -23
-26 -26 -26 -26 -26 -26 -26 -26 -26 -26 -26 -25 -25 -25 -25 -25 -25 -25 -25 -25 -25 -25 -25 -25 -25 -25 -25 -25 -25 -25 -25 -25 -25 -24 -24 -24 -24 -24 -24 -24 -24 -24
-27 -27 -27 -27 -27 -27 -27 -26 -26 -26 -26 -26 -26 -26 -26 -26 -25 -25 -25 -25 -25 -25 -25 -25 -25 -25 -26 -26 -26 -26 -26 -25 -25 -25 -25 -25 -24 -24 -24 -24 -24 -24
-27 -27 -27 -27 -27 -27 -27 -27 -27 -27 -26 -26 -26 -26 -26 -26 -26 -26 -26 -26 -26 -26 -26 -26 -26 -26 -26 -26 -26 -26 -26 -26 -26 -26 -26 -25 -25 -25 -25 -25 -25 -25
-27 -27 -27 -27 -27 -27 -28 -27 -27 -27 -27 -27 -27 -27 -27 -27 -27 -27 -27 -27 -27 -27 -27 -27 -26 -26 -26 -26 -26 -26 -26 -26 -26 -26 -26 -26 -26 -26 -26 -25 -25 -25
-28 -28 -28 -28 -28 -28 -28 -28 -28 -27 -27 -27 -27 -27 -27 -27 -27 -27 -27 -27 -27 -27 -27 -27 -27 -27 -27 -27 -27 -27 -27 -27 -27 -27 -27 -27 -26 -26 -26 -26 -26 -26
-28 -28 -28 -28 -28 -28 -28 -28 -28 -28 -28 -28 -28 -28 -27 -27 -27 -27 -27 -27 -27 -27 -27 -27 -27 -27 -27 -27 -27 -27 -27 -27 -27 -27 -27 -27 -27 -27 -27 -26 -26 -26
-28 -28 -28 -28 -28 -28 -28 -28 -28 -28 -28 -28 -28 -28 -28 -28 -28 -28 -28 -28 -28 -28 -27 -27 -27 -28 -28 -28 -28 -28 -27 -27 -27 -27 -27 -27 -27 -27 -27 -27 -27 -26
-29 -29 -29 -29 -29 -29 -29 -29 -29 -29 -29 -29 -29 -29 -28 -28 -28 -28 -28 -28 -28 -28 -28 -28 -28 -28 -28 -28 -28 -28 -28 -28 -28 -28 -28 -28 -28 -27 -27 -27 -27 -27
-29 -29 -29 -29 -29 -29 -29 -29 -29 -29 -29 -29 -29 -29 -29 -29 -29 -29 -28 -28 -28 -28 -28 -28 -28 -28 -28 -28 -28 -28 -28 -28 -28 -28 -28 -28 -28 -28 -28 -27 -27 -27
-29 -29 -30 -30 -30 -30 -30 -30 -30 -30 -30 -30 -30 -29 -29 -29 -29 -29 -29 -29 -29 -28 -28 -28 -28 -28 -28 -28 -28 -28 -28 -28 -28 -28 -28 -28 -28 -28 -28 -28 -28 -28
-30 -30 -30 -30 -30 -30 -30 -30 -30 -30 -30 -30 -30 -30 -30 -30 -30 -30 -30 -29 -29 -29 -29 -29 -29 -29 -29 -29 -29 -28 -28 -28 -28 -28 -28 -28 -28 -28 -28 -28 -28 -28
-30 -30 -30 -30 -30 -30 -30 -30 -30 -30 -30 -30 -30 -30 -30 -30 -30 -30 -30 -30 -30 -30 -29 -29 -29 -29 -29 -29 -29 -29 -29 -29 -29 -29 -29 -29 -29 -29 -29 -29 -29 -29
-30 -30 -30 -30 -30 -30 -30 -30 -30 -31 -31 -31 -31 -31 -30 -30 -30 -30 -30 -30 -30 -30 -30 -30 -30 -30 -30 -29 -29 -29 -29 -29 -29 -29 -29 -29 -29 -29 -29 -29 -29 -29
-31 -30 -30 -31 -31 -31 -31 -30 -31 -31 -31 -31 -31 -31 -31 -31 -31 -31 -31 -31 -31 -30 -30 -30 -30 -30 -30 -30 -30 -30 -29 -29 -29 -29 -29 -29 -29 -29 -29 -29 -29 -29
-31 -31 -31 -31 -31 -31 -31 -31 -31 -31 -31 -31 -31 -31 -31 -31 -31 -31 -31 -31 -31 -31 -31 -31 -31 -31 -31 -31 -30 -30 -30 -29 -29 -30 -30 -30 -30 -30 -30 -30 -30 -29
-31 -31 -31 -32 -32 -32 -32 -32 -32 -32 -32 -32 -31 -31 -31 -31 -31 -31 -31 -31 -31 -31 -31 -31 -31 -31 -31 -31 -31 -31 -30 -30 -30 -30 -30 -30 -30 -30 -30 -30 -30 -30
-32 -32 -32 -32 -32 -32 -32 -32 -32 -32 -32 -32 -32 -32 -32 -32 -32 -32 -32 -32 -32 -32 -32 -32 -32 -32 -32 -32 -31 -31 -31 -31 -31 -31 -31 -31 -31 -31 -31 -30 -30 -30
-33 -33 -33 -33 -33 -33 -33 -33 -33 -33 -33 -33 -32 -32 -32 -32 -32 -32 -32 -32 -32 -32 -32 -32 -32 -32 -32 -32 -32 -32 -31 -31 -31 -31 -31 -31 -31 -31 -31 -31 -31 -31
-33 -33 -33 -33 -33 -33 -33 -33 -33 -33 -33 -33 -33 -33 -33 -33 -33 -33 -33 -33 -33 -33 -32 -32 -32 -32 -32 -32 -32 -32 -32 -32 -32 -31 -31 -31 -31 -31 -31 -31 -31 -31
-34 -34 -34 -34 -34 -34 -34 -34 -34 -34 -34 -34 -34 -33 -33 -33 -33 -33 -33 -33 -33 -33 -33 -33 -33 -33 -33 -33 -33 -33 -32 -32 -32 -32 -32 -32 -32 -32 -31 -31 -31 -31
-34 -34 -34 -34 -34 -34 -34 -34 -34 -34 -34 -34 -34 -34 -34 -34 -34 -33 -33 -33 -33 -33 -33 -33 -33 -33 -33 -33 -33 -33 -33 -33 -32 -32 -32 -32 -32 -32 -32 -32 -32 -32
Height
5540 5540 5540 5541 5541 5541 5542 5542 5542 5542 5542 5542 5542 5542 5542 5542 5543 5543 5544 5544 5545 5545 5545 5546 5546 5547 5549 5550 5551 5553 5554 5556 5557 5559 5562 5563 5563 5564 5566 5568 5570 5572
5531 5531 5531 5531 5531 5532 5532 5533 5533 5533 5533 5534 5534 5534 5534 5534 5534 5535 5535 5536 5537 5537 5537 5538 5538 5539 5540 5541 5543 5544 5545 5546 5548 5549 5551 5553 5554 5555 5556 5557 5560 5561
5521 5521 5522 5522 5522 5522 5523 5524 5524 5524 5524 5524 5525 5525 5525 5526 5526 5526 5527 5528 5528 5529 5530 5530 5530 5531 5532 5533 5534 5535 5537 5538 5539 5540 5541 5543 5544 5546 5547 5548 5549 5551
5513 5513 5513 5513 5513 5513 5514 5515 5515 5515 5516 5516 5516 5517 5517 5517 5517 5518 5518 5519 5520 5521 5521 5522 5523 5523 5524 5525 5526 5527 5528 5529 5530 5531 5532 5533 5534 5536 5537 5539 5540 5541
5504 5504 5505 5505 5505 5505 5506 5506 5507 5507 5507 5507 5508 5508 5508 5509 5509 5509 5510 5511 5511 5512 5513 5514 5515 5515 5516 5516 5517 5518 5520 5521 5522 5523 5523 5524 5525 5526 5527 5529 5530 5531
5496 5496 5497 5496 5497 5497 5498 5498 5498 5499 5499 5499 5499 5500 5500 5500 5501 5501 5501 5502 5503 5503 5504 5505 5506 5507 5508 5508 5509 5510 5511 5512 5513 5514 5515 5516 5516 5517 5518 5519 5520 5522
5489 5488 5489 5489 5489 5489 5490 5490 5490 5490 5490 5490 5491 5491 5491 5492 5492 5492 5493 5493 5494 5495 5496 5497 5497 5498 5499 5500 5501 5501 5502 5503 5504 5505 5506 5507 5508 5509 5510 5511 5511 5512
5481 5481 5481 5481 5481 5481 5481 5482 5482 5482 5482 5482 5482 5483 5483 5483 5484 5484 5485 5485 5486 5486 5487 5488 5489 5490 5490 5491 5492 5493 5494 5495 5496 5497 5498 5499 5499 5500 5501 5502 5503 5504
5473 5473 5473 5473 5473 5473 5474 5474 5474 5474 5474 5474 5474 5475 5475 5475 5476 5476 5477 5477 5478 5478 5479 5480 5480 5481 5482 5482 5483 5484 5485 5486 5487 5488 5489 5490 5491 5492 5493 5494 5494 5495
5465 5465 5465 5465 5465 5465 5466 5466 5466 5466 5466 5466 5467 5467 5467 5467 5467 5468 5468 5469 5469 5470 5470 5471 5472 5472 5473 5474 5475 5475 5476 5478 5479 5479 5480 5482 5483 5484 5485 5485 5486 5487
5457 5457 5457 5457 5457 5457 5457 5458 5458 5458 5458 5458 5458 5458 5459 5459 5459 5459 5459 5460 5460 5461 5462 5462 5463 5464 5465 5466 5466 5467 5468 5469 5470 5471 5472 5473 5473 5475 5476 5477 5478 5479
5449 5449 5449 5449 5449 5449 5449 5449 5449 5449 5450 5450 5450 5450 5450 5450 5451 5451 5451 5452 5452 5453 5454 5454 5455 5456 5456 5457 5458 5458 5459 5460 5461 5462 5463 5464 5464 5466 5467 5468 5469 5470
5440 5440 5440 5440 5440 5440 5441 5441 5441 5441 5441 5441 5441 5441 5441 5442 5442 5443 5443 5443 5443 5444 5445 5446 5447 5447 5448 5449 5449 5450 5451 5451 5452 5453 5454 5454 5455 5456 5458 5459 5460 5461
5432 5432 5432 5432 5432 5432 5433 5433 5433 5433 5433 5433 5433 5433 5433 5433 5433 5434 5434 5434 5435 5435 5436 5437 5437 5438 5439 5439 5440 5441 5442 5443 5444 5444 5444 5445 5446 5447 5448 5449 5451 5451
5425 5424 5424 5424 5424 5424 5424 5424 5424 5424 5424 5424 5424 5424 5424 5424 5424 5425 5425 5425 5426 5426 5426 5427 5428 5429 5429 5430 5431 5432 5433 5434 5435 5435 5435 5435 5436 5437 5439 5440 5441 5442
5417 5416 5416 5416 5416 5416 5416 5416 5416 5416 5415 5415 5415 5416 5416 5416 5416 5416 5416 5416 5417 5417 5417 5417 5418 5419 5419 5420 5421 5422 5424 5425 5427 5427 5426 5426 5427 5428 5430 5431 5431 5432
5408 5408 5407 5407 5407 5407 5407 5407 5407 5407 5406 5406 5407 5407 5407 5407 5407 5407 5407 5407 5407 5408 5408 5408 5408 5409 5409 5410 5411 5412 5415 5417 5418 5418 5417 5416 5418 5419 5420 5421 5421 5422
5399 5399 5399 5398 5398 5398 5398 5398 5398 5398 5397 5397 5397 5398 5398 5398 5398 5398 5398 5398 5398 5398 5398 5398 5398 5398 5399 5400 5400 5401 5406 5409 5409 5408 5407 5407 5408 5410 5410 5410 5411 5411
5390 5390 5390 5389 5389 5389 5388 5388 5389 5388 5388 5388 5388 5388 5388 5388 5388 5388 5389 5389 5388 5389 5389 5389 5388 5388 5388 5389 5388 5389 5395 5400 5400 5398 5397 5397 5398 5399 5399 5400 5400 5401
5380 5380 5380 5380 5380 5380 5379 5379 5379 5379 5379 5378 5378 5378 5377 5377 5378 5378 5378 5379 5379 5379 5379 5380 5379 5378 5378 5378 5377 5378 5384 5388 5389 5387 5386 5386 5388 5388 5388 5388 5389 5389
5371 5371 5371 5370 5370 5370 5370 5370 5369 5369 5369 5369 5368 5368 5367 5367 5368 5368 5368 5369 5369 5369 5369 5370 5370 5368 5368 5368 5366 5368 5373 5375 5376 5376 5376 5376 5377 5377 5377 5377 5377 5378
5362 5362 5361 5361 5361 5360 5360 5360 5360 5360 5359 5359 5358 5358 5357 5358 5358 5358 5359 5359 5359 5359 5359 5359 5360 5358 5357 5357 5355 5357 5362 5364 5363 5364 5364 5365 5365 5365 5365 5365 5366 5367
5353 5353 5352 5352 5352 5351 5351 5350 5350 5350 5349 5349 5349 5348 5347 5348 5347 5347 5348 5348 5349 5349 5349 5349 5349 5348 5346 5345 5344 5345 5349 5352 5352 5352 5353 5352 5352 5352 5353 5354 5354 5355
5344 5344 5343 5343 5342 5342 5341 5341 5340 5340 5339 5339 5339 5338 5338 5338 5337 5336 5337 5337 5338 5338 5338 5338 5338 5337 5335 5334 5332 5332 5335 5338 5340 5341 5340 5339 5339 5340 5341 5341 5342 5342
5335 5334 5333 5333 5332 5331 5331 5330 5330 5329 5329 5328 5328 5328 5327 5327 5327 5326 5325 5326 5326 5326 5326 5326 5326 5325 5324 5322 5321 5319 5319 5323 5327 5328 5326 5325 5326 5327 5327 5328 5328 5328
5324 5323 5323 5323 5322 5321 5320 5319 5319 5318 5318 5317 5317 5316 5316 5315 5315 5315 5314 5314 5314 5313 5313 5313 5313 5312 5311 5310 5309 5307 5305 5308 5313 5314 5312 5312 5313 5313 5313 5314 5314 5314
Wind_Speed
70 71 71 71 70 69 67 66 66 65 64 64 63 62 62 61 61 60 60 60 61 61 62 64 65 67 68 69 69 70 70 70 69 70 73 77 79 80 81 82 83 84
70 71 71 71 71 69 67 66 66 65 64 64 63 63 62 62 61 60 59 59 60 61 62 63 64 65 66 66 67 67 68 69 69 69 70 72 76 78 79 80 82 83
70 71 71 71 70 68 67 66 65 64 63 63 63 63 62 62 61 61 59 59 59 60 61 62 63 64 65 65 65 65 66 67 68 69 69 70 72 75 77 78 79 80
69 70 70 69 68 67 66 64 63 63 62 62 62 62 62 61 61 61 60 59 58 59 61 62 62 63 64 64 64 64 64 65 66 67 68 69 69 71 73 76 77 78
67 67 67 67 66 65 63 62 62 61 61 61 61 61 61 61 61 61 60 59 59 59 60 61 62 62 63 64 64 63 63 63 63 65 66 67 68 69 70 72 73 75
64 64 65 65 64 63 61 61 60 60 60 60 60 60 60 61 61 61 60 60 59 59 59 60 61 61 62 63 63 63 62 62 62 62 63 64 66 67 68 69 70 71
62 62 63 63 63 62 61 60 60 60 60 60 60 60 60 60 61 61 60 60 59 59 58 59 60 60 61 61 62 62 61 61 61 61 61 62 62 64 66 67 67 68
60 61 61 62 62 61 60 59 59 60 60 60 60 59 59 59 60 60 59 59 59 59 58 58 59 59 60 61 61 62 61 61 60 60 61 61 61 61 62 64 65 66
59 59 61 62 63 62 59 58 58 59 60 60 59 58 58 58 59 58 58 58 58 58 58 58 58 59 60 60 61 61 61 61 61 60 60 61 61 61 61 62 63 64
59 60 61 62 62 62 60 58 58 58 58 58 58 57 57 58 58 58 58 58 58 58 58 58 59 59 59 60 60 61 61 61 61 61 60 61 62 62 63 63 64 64
59 59 60 60 60 60 60 60 60 59 59 58 58 58 59 59 59 59 60 59 59 59 59 59 60 60 60 60 61 61 61 62 62 62 62 61 62 63 63 65 65 66
60 60 60 60 60 60 61 61 61 60 60 60 60 60 60 60 60 60 60 61 60 60 60 60 60 61 61 61 61 62 62 62 63 63 64 64 64 64 64 65 66 67
59 57 56 56 56 57 58 59 60 60 61 61 61 61 61 61 60 60 61 61 61 61 61 61 61 61 61 62 62 62 62 63 63 63 64 65 66 67 67 67 67 67
55 54 53 53 53 54 55 56 58 60 61 61 62 62 63 62 62 61 61 62 62 62 62 62 62 62 62 62 62 62 62 62 63 63 64 65 66 67 68 68 69 69
54 54 54 54 55 56 56 56 57 58 59 60 61 62 63 63 63 62 62 62 63 63 63 63 63 63 63 63 63 62 62 62 62 62 63 64 65 66 67 67 68 68
55 54 56 57 58 59 59 58 58 58 58 59 59 60 60 61 62 61 61 61 63 64 64 64 64 64 64 64 64 63 63 62 62 62 63 64 64 64 65 65 66 66
57 56 58 59 60 61 61 60 59 59 60 61 61 60 61 61 62 61 61 61 62 63 65 66 66 66 66 65 65 65 64 63 63 63 64 64 65 65 65 65 66 66
58 60 62 63 64 64 63 62 61 60 62 64 65 65 65 65 65 65 64 63 62 63 64 66 67 68 68 68 68 68 67 65 65 66 66 67 67 67 67 68 68 69
60 63 64 65 67 68 67 66 65 65 66 68 68 69 69 69 68 68 67 66 64 63 63 64 65 67 68 69 70 71 70 68 68 69 69 70 70 70 70 71 72 72
59 62 63 65 67 68 69 69 69 69 69 70 70 70 70 70 70 69 69 68 67 66 65 65 65 66 67 68 70 71 71 71 71 72 72 73 73 73 74 74 75 75
57 59 61 62 64 66 67 67 68 68 69 69 69 69 69 70 70 70 70 70 69 69 68 67 67 67 68 68 70 71 71 71 72 73 74 75 75 76 77 77 78 78
57 58 59 60 62 64 65 65 66 66 67 68 69 69 70 70 70 70 70 70 71 71 71 70 70 71 71 72 73 73 72 72 73 74 74 75 76 77 78 79 80 81
56 57 58 58 60 61 62 64 65 66 67 68 68 69 70 71 71 71 72 72 72 73 73 74 74 74 75 76 77 76 76 75 75 76 76 77 78 78 79 80 81 82
58 59 60 60 61 62 63 65 66 67 68 69 69 70 71 72 73 74 75 76 76 76 77 77 78 78 79 79 80 81 81 80 79 79 80 81 82 82 82 82 83 83
61 62 63 64 65 66 66 67 68 69 70 71 71 72 73 74 75 77 78 79 80 80 80 81 81 82 82 83 84 85 85 84 83 83 83 84 85 85 86 86 86 86
63 64 65 67 68 69 70 71 72 73 74 75 75 76 77 78 79 80 81 82 83 84 84 84 85 85 85 86 87 88 88 88 87 87 87 87 88 88 88 89 89 90
Wind_Direction
264 264 264 264 264 263 262 261 261 261 261 261 262 262 263 263 263 263 262 261 261 260 259 259 259 259 259 259 258 257 257 257 256 254 251 251 252 253 252 251 250 250
263 263 263 263 263 263 262 261 260 260 260 260 260 260 261 262 262 263 262 261 260 260 259 259 259 259 260 260 259 258 257 256 256 256 254 252 251 252 253 252 252 252
262 262 262 262 262 262 261 261 260 260 260 260 260 260 260 261 262 262 262 261 260 259 259 258 258 259 259 260 260 259 257 256 256 256 255 254 252 252 252 253 253 253
261 261 261 261 262 262 262 261 261 260 260 260 260 260 260 261 262 262 262 261 260 259 258 258 258 258 258 259 259 259 258 257 255 255 255 255 254 253 253 253 253 254
261 261 261 262 262 262 262 262 261 261 261 261 260 260 261 261 261 261 261 261 260 259 258 257 257 257 257 258 259 258 258 257 256 255 254 254 254 255 254 254 254 254
262 262 262 263 263 264 264 264 263 262 261 261 261 261 261 261 261 261 261 260 260 259 258 257 257 257 257 257 258 258 258 257 256 255 254 254 254 254 255 255 255 255
264 264 265 265 266 267 268 266 265 263 262 261 261 260 260 260 260 260 260 260 260 259 259 258 258 258 257 257 257 258 258 258 257 255 254 253 253 253 254 254 255 256
265 265 265 266 269 271 270 268 265 264 263 262 261 260 260 260 260 260 260 260 260 260 260 259 259 258 258 257 257 257 257 258 258 257 255 253 252 253 253 254 254 255
264 264 265 268 270 271 270 268 265 263 263 262 262 261 261 260 261 260 260 260 260 260 260 260 260 259 259 258 258 257 257 257 257 258 257 256 254 253 253 254 255 255
268 268 269 270 271 270 269 267 265 264 263 263 262 262 261 260 260 260 259 259 258 258 258 259 259 259 259 259 259 259 258 257 256 257 257 257 256 255 254 253 254 255
270 272 273 273 272 270 269 267 265 264 263 262 262 261 260 260 260 260 259 259 258 258 258 257 258 258 258 259 259 259 258 258 257 256 256 256 256 256 255 254 254 255
273 274 274 273 270 269 269 268 266 265 263 263 262 262 261 261 260 261 261 261 261 260 260 259 259 258 258 258 258 259 259 258 257 256 255 255 255 255 255 255 254 254
273 272 270 268 267 266 266 267 266 266 265 264 264 264 263 263 262 262 262 262 262 262 262 261 261 260 260 259 259 258 258 259 258 258 256 256 255 255 255 255 255 255
269 267 266 266 266 266 266 266 265 265 265 265 265 265 265 265 265 264 263 263 263 263 263 263 262 262 261 261 260 259 259 258 258 258 257 257 256 256 256 256 256 256
266 264 263 264 266 268 267 266 265 265 265 265 265 265 266 266 266 266 266 265 265 264 264 264 263 263 262 261 261 260 259 259 258 258 258 257 257 257 257 257 257 257
266 265 264 264 266 267 266 265 265 265 265 265 266 266 267 266 266 267 268 268 267 267 266 266 265 264 263 262 261 260 259 259 259 258 258 258 258 257 257 257 257 257
263 265 265 265 266 266 266 266 267 267 267 267 267 267 267 266 266 267 270 271 271 270 268 267 266 265 264 263 261 260 259 259 259 259 259 258 258 258 258 258 257 257
261 262 262 262 263 264 265 266 266 266 266 267 267 267 267 267 267 268 271 273 273 272 270 268 267 266 265 264 262 261 259 259 259 260 259 259 259 258 258 258 258 258
262 261 261 260 259 258 259 261 261 262 262 263 264 266 267 268 269 271 272 273 274 273 271 269 268 267 266 264 264 262 260 258 258 259 259 259 259 259 259 259 258 258
263 263 262 261 259 257 256 257 257 258 259 260 262 264 266 268 270 272 272 273 274 273 272 270 269 268 267 266 265 264 262 261 259 259 259 259 259 259 259 259 259 259
265 264 263 262 261 258 257 256 256 257 258 259 261 263 265 268 270 271 272 272 272 273 272 271 270 269 269 268 267 266 265 263 262 261 261 261 260 260 260 260 260 260
266 265 263 261 260 259 258 258 258 259 259 261 263 265 267 269 270 270 270 271 271 272 272 272 271 271 271 270 269 268 266 265 264 264 263 263 262 262 261 261 261 261
266 264 263 262 261 261 261 261 262 263 263 264 265 266 268 269 270 270 270 270 271 271 272 272 272 272 272 272 271 270 268 267 266 265 265 264 264 263 263 263 262 262
265 265 265 265 265 265 266 266 267 268 268 268 269 269 269 269 270 270 271 271 271 271 271 271 271 272 272 272 272 271 270 269 268 267 267 266 265 265 264 264 264 264
265 266 266 267 268 269 269 270 270 271 271 271 271 271 271 270 270 270 271 271 271 271 271 271 271 271 271 271 272 272 271 270 269 268 268 267 266 266 265 265 265 265
267 267 268 269 270 270 271 271 272 272 273 273 273 272 272 272 271 271 271 271 271 271 271 271 272 272 271 271 271 271 271 271 270 269 269 268 267 267 266 266 265 265